Regional Weather Roundup
Issued by NWS

Home | Current Version | Previous Version | Text Only | Print | Product List | Glossary Off
Versions: 1 2 3 4 5 6 7 8 9 10 11 12 13 14 15 16 17 18 19 20 21 22 23 24 25 26 27 28 29 30 31 32 33 34 35 36 37 38 39 40 41 42 43 44 45 46 47 48 49 50

000
ASUS45 KBOI 140210
RWRID
WEATHER ROUNDUP FOR IDAHO
NATIONAL WEATHER SERVICE BOISE ID
800 PM MDT SUN JUL 13 2014

NOTE: "FAIR" INDICATES FEW OR NO CLOUDS BELOW 12000 FEET
WITH NO SIGNIFICANT WEATHER AND/OR OBSTRUCTIONS TO VISIBILITY

IDZ012-014-140300-
SOUTHWEST IDAHO


CITY           SKY/WX    TMP DP  RH WIND       PRES   REMARKS
BOISE          MOSUNNY  100  40  12 N8        29.94F HX  95
CALDWELL       MOSUNNY   99  59  26 N5        29.93F HX  98
MOUNTAIN HOME  SUNNY    102  36  10 NE6       29.94F HX  96
$$

IDZ016-017-140300-
SOUTHCENTRAL IDAHO


CITY           SKY/WX    TMP DP  RH WIND       PRES   REMARKS
BURLEY         SUNNY     88  55  32 SE3       30.07F
JEROME         SUNNY     91  62  37 CALM      30.07F HX  91
TWIN FALLS     SUNNY     97  36  12 CALM      30.07F HX  92
$$

IDZ019>023-140300-
SOUTHEAST IDAHO


CITY           SKY/WX    TMP DP  RH WIND       PRES   REMARKS
IDAHO FALLS    SUNNY     90  47  22 NE7       30.17S
POCATELLO      MOSUNNY   93  39  15 E3        30.12F
REXBURG        MOSUNNY   87  45  23 VRB3      30.18F
$$

IDZ006-010-011-018-031-032-140300-
CENTRAL IDAHO MOUNTAINS


CITY           SKY/WX    TMP DP  RH WIND       PRES   REMARKS
MCCALL         MOSUNNY   87  38  17 NW3       30.17S
HAILEY         MOSUNNY   90  46  22 S8        30.18S
STANLEY          N/A     82  37  20 NW3       30.29S
SALMON         PTSUNNY   88  48  25 N3        30.07S
CHALLIS        MOSUNNY   83  43  24 N6        30.16R
$$

IDZ002-004-006-007-026-140300-
NORTHERN IDAHO


CITY           SKY/WX    TMP DP  RH WIND       PRES   REMARKS
LEWISTON       PTSUNNY   98  44  15 NE5       29.96R HX  94
LOWELL           N/A     79  61  53 N3        29.97R
COEUR D`ALENE  CLOUDY    91  52  25 NE6       30.02S
MULLAN PASS    MOSUNNY   74  46  36 N3        30.32S
$$



USA.gov is the U.S. government's official web portal to all federal, state and local government web resources and services.